宇都宮彗星

C/1997 T1 ( Utsunomiya )

English version
Home page
Updated on January 16, 1999

---------------------------------------------------------------------

・ プロフィール

発見日 1997年10月3日
発見光度 10.5等
発見者 宇都宮章吾 (熊本県)

・ 軌道要素

   The following improved orbital elements by Kenji Muraoka, are 
  from 571 observations 1997 Oct. 5 to 1998 June 18, perturbations
  by 9 Planets, Moon and 5 minor planets were taken into account.
   The mean residual is +/- 0.69 arc seconds.

      Epoch  =  1997 Dec. 18.0  TT       JDT = 2450800.5
          T  =  1997 Dec. 10.14495       +/- 0.00004 (m.e.) TT
       Peri. =   95.96559                +/- 0.00002
       Node  =   53.70318                +/- 0.00002   (2000.0)
       Incl. =  127.99265                +/- 0.00002
          q  =    1.3591073              +/- 0.0000003 AU
          e  =    0.9985255              +/- 0.0000016
        1/a  =   +0.0010849              +/- 0.0000012 1/AU
        ( P  =  27984 years )
  orig. 1/a  =   +0.001160   1/AU 
  fut.  1/a  =   +0.001313   1/AU 

・ 星図

・ 1997年 9月 9日〜1997年10月29日
・ 1997年10月29日〜1999年 1月22日

・ 光度変化

        m1 = 6.5 + 5 logΔ + 16.5 log r

---------------------------------------------------------------------

軌道要素は村岡健治氏の計算によるものです。
星図は StellaNavigator Ver.2.0 for Windows (アストロアーツ 編著 / アスキー出版局刊) で作成したものです。
光度グラフはComet for Windowsで作成したものです。

---------------------------------------------------------------------

Copyright(C) Seiichi Yoshida (comet@aerith.net). All rights reserved.